Regional Weather Roundup
Issued by NWS State College, PA

Home | Current Version | Previous Version | Graphics & Text | Print | Product List | Glossary Off
Versions: 1 2 3 4 5 6 7 8 9 10 11 12 13 14 15 16 17 18 19 20 21 22 23 24 25 26 27 28 29 30 31 32 33 34 35 36 37 38 39 40 41 42 43 44 45 46 47 48 49 50

000
ASUS41 KCTP 031503
RWRCTP

REGIONAL WEATHER ROUNDUP
NATIONAL WEATHER SERVICE STATE COLLEGE PA
1000 AM EST TUE MAR 03 2015

Note: "fair" indicates few or no clouds below 12,000 feet with no
significant weather and/or obstructions to visibility.

* = STATION THAT DOES NOT REPORT PRECIPITATION /E.G. RAIN...SNOW...ETC/
    THUNDER OR FOG.

PAZ002>004-007>009-013>016-020>023-029>032-031600-
WESTERN PENNSYLVANIA

CITY           SKY/WX    TMP DP  RH WIND       PRES   REMARKS
ERIE           SNOW      22  16  78 SE10      30.14F VSB 1/2 WCI  11
MEADVILLE      LGT SNOW  18  13  80 VRB7      30.10F WCI   9
FRANKLIN*      CLOUDY    18  10  73 E7        30.13F VSB 3/4 WCI   8
NEW CASTLE     FLURRIES  23  13  65 NE6       30.13F
BEAVER COUNTY  CLOUDY    25  14  63 SE7       30.10F
BUTLER*        PTSUNNY   21  12  68 E12       30.13F WCI   9
PITTSBURGH INT CLOUDY    25  16  68 SE7       30.12F
PITTSBURGH     MIX PCPN  26  13  57 CALM      30.12F
INDIANA*       PTSUNNY   28  16  59 S9G17     30.20S
LATROBE        CLOUDY    32  16  51 CALM      30.16F
WASHINGTON CO* CLOUDY    28  18  64 E3        30.13F
$$

PAZ004>006-010>012-017>019-024>028-033>037-041-042-045-046-049>053-031600-
CENTRAL PENNSYLVANIA

CITY           SKY/WX    TMP DP  RH WIND       PRES   REMARKS
BRADFORD       CLOUDY    17   6  62 SE10G18   30.11F WCI   5
DUBOIS         LGT SNOW  19  10  68 SE10      30.15F VSB 3/4 WCI   7
CLEARFIELD     FLURRIES  17   9  70 N5        30.21F WCI  10
JOHNSTOWN      LGT SNOW  21  12  68 SE9       30.13F WCI  11
ALTOONA        CLOUDY    23  10  57 S8        30.25F WCI  14
STATE COLLEGE  NOT AVBL
WILLIAMSPORT   CLOUDY    20   9  62 CALM      30.34F
SELINSGROVE    CLOUDY    24  11  57 S6        30.36F
FT INDIANTOWN  CLOUDY    24  10  54 SE6       30.37F
CAPITAL CITY   PTSUNNY   25  11  55 E9        30.39F
HARRISBURG     CLOUDY    27  12  53 SE7       30.39F
YORK           PTSUNNY   27  12  53 E8        30.37F
$$

PAZ038>040-043-044-047-048-054-055-060>062-067>071-031600-
EASTERN PENNSYLVANIA

CITY           SKY/WX    TMP DP  RH WIND       PRES   REMARKS
SCRANTON       CLOUDY    20   9  62 N3        30.30F
MOUNT POCONO   CLOUDY    17   7  64 SE6       30.25F WCI   9
ALLENTOWN      CLOUDY    25   9  50 CALM      30.39F
QUAKERTOWN*    CLOUDY    25  10  54 CALM      30.40F
READING        CLOUDY    25  10  53 MISG      30.40F
LANCASTER      PTSUNNY   25  13  60 SE7       30.39F
COATESVILLE    PTSUNNY   27  14  59 S7        30.40F
POTTSTOWN      PTSUNNY   25  10  53 S5        30.43F
BLUE BELL      PTSUNNY   30  12  47 SE3       30.41F
DOYLESTOWN     CLOUDY    24  10  55 CALM      30.40F
WILLOW GROVE   NOT AVBL
NORTH PHILA    CLOUDY    29   9  43 E3        30.44F
PHILADELPHIA   CLOUDY    29  11  47 CALM      30.46F
$$


USA.gov is the U.S. government's official web portal to all federal, state and local government web resources and services.